Regional Weather Roundup
Issued by NWS

Home | Current Version | Previous Version | Text Only | Print | Product List | Glossary Off
Versions: 1 2 3 4 5 6 7 8 9 10 11 12 13 14 15 16 17 18 19 20 21 22 23 24 25 26 27 28

000
ASUS45 KBOU 301107
RWRCO

WEATHER ROUNDUP FOR COLORADO
NATIONAL WEATHER SERVICE DENVER/BOULDER CO
500 AM MDT TUE AUG 30 2016

NOTE: "FAIR" INDICATES FEW OR NO CLOUDS BELOW 12000 FEET WITH NO
SIGNIFICANT WEATHER AND/OR OBSTRUCTIONS TO VISIBILITY.

COZ001>005-013-030-031-301200-
...NORTHWEST COLORADO...

CITY           SKY/WX    TMP DP  RH WIND       PRES   REMARKS
CRAIG          FAIR      55  36  48 E13       30.36R
HAYDEN         FAIR      50  34  53 E12       30.38S
MEEKER         FAIR      46  39  76 CALM      30.37R
MOUNT WERNER   NOT AVBL
STEAMBOAT SPGS FAIR      44  36  75 SW3       30.40F
WALDEN         FAIR      34  30  86 SE6       30.51R WCI  29
$$

COZ006>008-011-301200-
...WEST CENTRAL VALLEYS...

CITY           SKY/WX    TMP DP  RH WIND       PRES   REMARKS
GRAND JUNCTION FAIR      62  43  49 E10       30.26S
MONTROSE       FAIR      51  44  77 E5        30.35R
EAGLE          FAIR      45  39  81 CALM      30.44F
RIFLE          FAIR      51  43  74 E3        30.33S
DELTA          FAIR      57  44  61 E6        30.31S
NUCLA          FAIR     N/A N/A N/A SE5       30.36R
$$

COZ017>023-064>068-301200-
...SOUTHWEST COLORADO...

CITY           SKY/WX    TMP DP  RH WIND       PRES   REMARKS
DURANGO        CLOUDY    51  44  77 N6        30.39S
CORTEZ         FAIR      55  47  74 VRB5      30.31F
PAGOSA SPRINGS FAIR      47  42  81 CALM      30.45R
TELLURIDE      CLOUDY    49  39  69 SE7       30.53S
WOLF CREEK PAS MOCLDY    39  34  81 MISG      30.69S
$$

COZ009-010-012-014-032>034-037-058>063-301200-
...CENTRAL COLORADO...

CITY           SKY/WX    TMP DP  RH WIND       PRES   REMARKS
ASPEN          FAIR      40  37  89 CALM      30.44F
BUENA VISTA    FAIR      42  39  90 CALM      30.51S
COPPER MTN     FAIR      45  32  61 S8        30.69S
BERTHOUD PASS  FAIR      34  21  60 E9G17     30.72F WCI  26
COTTONWOOD PAS FAIR      46  36  66 CALM      30.59S
GUNNISON       FAIR      39  36  87 E5        30.51S
KREMMLING      FAIR      37  36  93 CALM      30.49S
LEADVILLE      FAIR      33  31  92 NE3       30.58S
MONARCH PASS   FAIR      36  34  93 E8        30.78S
SALIDA         FAIR      44  41  91 W6        30.57F
SUNLIGHT       FAIR      45  36  70 W7        30.63S
WILKERSON PASS CLOUDY    43  34  70 CALM      30.69S
$$

COZ069>075-301200-
...SAN LUIS VALLEY/SANGRE DE CRISTO MOUNTAINS...

CITY           SKY/WX    TMP DP  RH WIND       PRES   REMARKS
ALAMOSA        FAIR      39  37  92 SW5       30.45S
LA VETA PASS   CLOUDY    41  37  87 CALM      30.58S
SAGUACHE       FAIR      45  41  87 NW10G17   30.48S
$$

COZ035-036-038>040-301200-
...NORTHERN COLORADO FRONT RANGE...

CITY           SKY/WX    TMP DP  RH WIND       PRES   REMARKS
DENVER INTL AP MOCLDY    59  46  62 SW8       30.33F
DMNS CITY PARK   N/A     57  48  70 SW5       30.34S
AURORA         MOCLDY    57  47  69 S6        30.35F
FRONT RANGE AP NOT AVBL
ERIE MUNI ARPT FAIR      53  50  90 S3        30.33S
BOULDER MUN AP FAIR      59  48  67 SW3       30.34S
CENTENNIAL     MOCLDY    58  45  62 SW5       30.36F
BROOMFIELD     FAIR      61  45  55 NW6       30.36S
FORT COLLINS   FAIR      57  52  82 CALM      30.32S
LONGMONT       FAIR      58  53  81 CALM      30.34F
$$

COZ041-046-047-076>085-087-088-301200-
...PIKES PEAK/PALMER DIVIDE AND SOUTHERN FOOTHILLS...

CITY           SKY/WX    TMP DP  RH WIND       PRES   REMARKS
COLO. SPRINGS  MOCLDY    53  47  79 N7        30.40S
A. F. ACADEMY  MOCLDY    49  47  93 N7        30.40F
SCHRIEVER AFB  NOT AVBL
ELLICOTT       NOT AVBL
FALCON         FAIR      51  44  78 W3        30.44S
FORT CARSON    FAIR      53  48  82 NW7       30.37S
LIMON          FAIR      51  49  92 CALM      30.34F
MONUMENT HILL  CLOUDY    50  45  81 S3        30.44S
TRINIDAD       FAIR      55  50  83 W8        30.37R
$$

COZ042>045-048>051-090-091-301200-
...NORTHEAST COLORADO...

CITY           SKY/WX    TMP DP  RH WIND       PRES   REMARKS
GREELEY ARPT   FAIR      57  54  88 CALM      30.31F
AKRON          FAIR      57  51  80 W7        30.29S
BURLINGTON     FOG       61  59  93 W8        30.28S VSB 1/4
WRAY           FAIR     N/A N/A N/A CALM      30.25S HAZE
STERLING       FAIR      55  54  94 CALM      30.25F
HOLYOKE        FAIR      61  59  94 SW3       30.25F
FORT MORGAN    FAIR      54  53  94 W8        30.29F
$$

COZ086-089-092>099-301200-
...SOUTHEAST COLORADO...

CITY           SKY/WX    TMP DP  RH WIND       PRES   REMARKS
PUEBLO         FAIR      59  52  77 W7        30.31S
LA JUNTA       FAIR      61  57  87 CALM      30.28R
LAMAR          FAIR      57  56  96 SW3       30.23F FOG
SPRINGFIELD      N/A     60  57  89 W5        30.27S
$$




USA.gov is the U.S. government's official web portal to all federal, state and local government web resources and services.